SCP
0 0 0 0 0 0 0 0 0 0 0 0 0 0 0 0 0 0 0 0 0 0 0 0 0 0 0 0 0 0 0 0 0 -0 0 0 0 0 0 0 0 0 0
0 0 0 0 0 0 0 0 0 0 0 0 0 0 0 0 0 0 0 0 0 0 0 0 0 0 0 0 0 0 0 0 0 0 -0 0 0 0 0 0 0 0 0
0 0 0 0 0 0 0 0 0 0 0 0 0 0 0 0 0 0 0 0 0 0 0 0 0 0 0 0 0 0 0 0 0 0 0 0 0 0 0 0 0 0 0
0 0 0 0 0 0 0 0 0 0 0 0 0 0 0 0 0 0 0 0 0 0 0 0 0 0 0 0 0 0 0 0 0 0 0 0 0 0 0 0 0 0 0
0 0 0 0 0 0 0 0 0 0 0 0 0 0 0 0 0 0 0 0 0 0 0 0 0 0 0 0 0 0 0 0 0 0 0 0 0 0 0 0 0 0 0
0 0 0 0 0 0 0 0 0 0 0 0 0 0 0 0 0 0 0 0 0 0 0 0 0 0 0 0 0 0 0 0 0 0 0 0 0 0 0 0 0 0 0
0 0 0 0 0 0 0 0 0 0 0 0 0 0 0 0 0 0 0 0 0 0 0 0 0 0 0 0 0 0 0 0 0 0 0 0 0 0 0 0 0 0 0
0 0 0 0 0 0 0 0 0 0 0 0 0 0 0 0 0 0 0 0 0 0 0 0 0 0 0 0 0 0 0 0 0 0 0 0 0 0 0 0 0 -0 -0
0 0 0 0 0 0 0 0 0 0 0 0 0 0 0 0 0 0 0 0 0 0 0 0 0 0 0 0 0 0 0 0 0 0 0 0 0 0 0 0 0 0 -0
0 0 0 0 0 0 0 0 0 0 0 0 0 0 0 0 0 0 0 0 0 0 0 0 0 0 0 0 0 0 0 0 0 0 0 0 0 0 0 0 0 0 0
0 0 0 0 0 0 0 0 0 0 0 0 0 0 0 0 0 0 0 0 0 0 0 0 0 0 0 0 0 0 0 0 0 0 0 0 0 0 0 0 0 0 0
0 0 -0 0 0 0 0 0 0 0 0 0 0 0 0 0 0 0 0 0 0 0 0 0 0 0 0 0 0 0 0 0 0 0 0 0 0 0 0 0 0 0 0
0 0 0 0 0 0 0 0 0 0 0 0 0 0 0 0 0 0 0 0 0 0 0 0 0 0 0 0 0 0 0 0 0 0 0 0 0 0 0 0 0 0 0
0 0 0 0 0 0 0 0 0 0 0 0 0 0 0 0 0 0 0 0 0 0 0 0 0 0 0 0 0 0 0 0 0 0 0 0 0 0 0 0 0 0 0
0 0 0 0 0 0 0 0 0 0 0 0 0 0 0 0 0 0 0 0 0 0 0 0 0 0 0 0 0 0 0 0 0 0 0 0 0 0 0 0 0 0 0
0 0 0 0 0 0 0 0 0 0 0 0 0 0 0 0 0 0 0 0 0 0 0 0 0 0 0 0 0 0 0 0 0 0 0 0 0 0 0 0 0 0 0
0 0 0 0 0 0 0 0 0 0 0 0 0 0 0 0 0 0 0 0 0 0 0 0 0 0 0 0 0 0 0 0 0 0 0 0 0 0 0 0 0 0 -0
0 0 0 0 0 0 0 0 0 0 0 0 0 0 0 0 0 0 0 0 0 0 0 0 0 0 0 0 0 0 0 0 0 0 0 0 0 0 0 0 0 0 0
0 0 0 0 0 0 0 0 0 0 0 0 0 0 0 0 0 0 0 0 0 0 0 0 0 0 0 0 0 0 0 0 0 0 0 0 0 0 0 0 0 0 0
0 0 0 0 0 0 0 0 0 0 0 0 0 0 0 0 0 0 0 0 0 0 0 0 0 0 0 0 0 0 0 0 0 0 0 0 0 0 0 0 0 0 0
0 -0 0 0 0 0 0 0 0 0 0 0 0 0 0 0 0 0 0 0 0 0 0 0 0 0 0 0 0 0 0 0 0 0 0 0 0 0 0 0 0 0 0
-0 -0 -0 0 0 0 0 0 0 0 0 0 0 0 0 0 0 0 0 0 0 0 0 0 0 0 0 0 0 0 0 0 0 0 0 0 0 0 0 0 0 0 0
-0 -0 -0 -0 -0 -0 -0 0 0 0 0 0 0 0 0 0 0 0 0 0 0 0 0 0 0 0 0 0 0 0 0 0 0 0 0 0 0 0 0 0 0 0 0
-0 -0 -0 -0 -0 -0 -0 -0 -0 0 0 0 0 0 0 0 0 0 0 0 0 0 0 0 0 0 0 0 0 0 0 0 0 0 0 0 0 0 0 0 0 0 0
-0 -0 -0 -0 -0 -0 -0 -0 0 0 0 0 0 0 0 0 0 0 0 0 0 0 0 0 0 0 0 0 0 0 0 0 0 0 0 0 0 0 0 0 0 0 0
-0 -0 -0 -0 -0 -0 -0 -0 0 0 0 0 0 0 0 0 0 0 0 0 0 0 0 0 0 0 0 0 0 0 0 0 0 0 0 0 0 0 0 0 0 0 0
Wind_Speed_500mb
116 114 100 80 78 84 90 91 89 84 83 84 84 84 85 83 81 76 72 70 66 62 58 56 53 46 39 32 28 29 32 35 38 44 44 35 19 9 6 40 10 29 17
107 110 96 73 63 68 81 93 95 89 84 87 85 85 83 84 81 77 76 73 68 64 62 60 57 49 41 32 25 27 31 34 34 36 41 25 19 13 48 12 25 17 27
107 106 93 73 63 69 73 86 92 88 83 83 85 85 82 81 81 84 84 80 73 69 66 64 60 53 46 34 24 26 31 31 31 30 22 13 11 58 11 39 33 48 42
98 94 81 65 62 63 68 78 87 83 79 82 85 91 89 91 93 92 89 82 77 73 71 68 64 58 49 38 27 24 32 32 30 29 28 25 28 22 36 44 59 49 55
89 84 68 50 50 57 65 71 78 76 78 80 82 86 88 84 85 88 86 82 81 78 74 71 67 63 55 43 32 25 30 32 32 33 31 30 25 26 24 63 76 66 62
72 70 38 36 49 58 61 68 73 74 76 76 81 84 82 83 87 89 87 86 86 83 79 75 72 66 59 48 36 27 29 32 32 33 34 34 31 30 31 45 60 65 73
72 66 39 43 53 55 61 69 73 75 74 77 78 79 81 83 84 86 84 87 90 91 88 81 77 72 61 51 41 32 29 33 34 34 34 33 31 32 37 45 57 61 80
72 55 37 45 49 58 64 70 71 75 80 80 80 79 78 82 83 84 86 88 88 87 85 81 77 72 64 57 47 35 31 35 38 37 35 33 32 32 35 43 53 74 59
63 45 45 46 49 57 63 66 68 72 81 86 86 83 82 86 85 83 86 88 85 84 81 80 78 74 69 61 52 41 34 39 43 42 38 35 35 35 37 42 46 51 52
40 41 37 36 43 47 55 59 66 74 82 87 88 88 87 88 86 83 84 88 89 87 80 82 82 76 70 63 55 46 40 44 47 46 41 37 36 37 39 43 47 50 57
14 15 20 27 34 41 50 56 68 81 83 82 91 97 97 97 96 91 86 88 89 87 83 84 84 79 73 65 58 52 48 49 47 46 42 39 35 36 40 46 51 55 60
26 13 14 19 30 43 53 60 67 80 77 80 91 97 103 106 106 103 97 94 93 86 83 86 86 83 77 71 65 58 53 51 48 46 42 38 36 38 42 48 55 58 60
42 41 51 59 68 74 79 76 80 78 75 89 95 97 101 109 113 112 108 103 98 88 87 90 92 89 81 75 68 62 58 53 49 45 41 38 36 39 45 50 56 59 64
83 77 82 86 80 85 95 89 76 73 81 90 94 96 99 102 108 111 111 108 102 92 92 95 93 90 83 79 75 67 59 54 50 45 43 39 37 40 46 54 58 58 63
66 80 91 83 80 82 86 73 79 84 84 89 99 98 94 98 107 106 103 104 101 93 89 93 96 94 91 87 78 70 61 56 52 47 42 41 38 42 49 54 54 57 60
57 63 75 90 79 88 101 108 101 97 99 102 105 103 102 99 104 98 98 98 93 89 88 96 100 99 95 87 78 71 63 57 52 49 46 39 38 41 47 49 46 49 50
66 71 80 77 76 87 93 99 100 98 92 101 103 104 101 102 99 95 94 94 90 88 92 100 102 101 94 86 81 73 63 57 51 49 46 38 39 43 44 43 47 43 43
86 80 86 93 93 75 77 82 90 88 89 91 95 95 99 95 91 93 92 88 88 89 96 101 102 99 95 90 83 74 63 56 51 49 43 38 40 41 38 44 46 50 52
74 74 86 88 86 84 72 57 61 66 68 71 75 81 86 88 90 91 89 88 89 91 95 98 100 99 93 89 81 71 63 54 48 47 44 38 40 31 37 40 45 52 61
69 79 83 93 90 83 88 78 47 41 47 57 67 76 81 84 81 83 84 82 84 87 94 95 97 96 94 87 78 72 59 50 53 51 42 40 30 34 32 34 42 61 68
86 84 89 83 83 87 79 78 72 54 46 49 56 62 68 74 74 73 73 78 84 89 94 93 95 97 91 79 74 69 56 57 56 48 42 30 28 30 32 30 46 54 55
80 73 85 88 87 67 77 79 74 65 54 48 49 53 58 61 66 70 72 75 81 87 92 93 96 96 89 80 74 68 54 60 51 46 36 26 26 27 27 35 40 43 47
85 81 75 84 87 76 68 71 78 72 63 56 52 47 51 58 59 62 72 77 80 87 93 97 103 101 92 83 78 63 62 63 56 49 35 32 26 19 23 32 37 38 40
85 92 91 88 92 82 85 83 81 60 67 71 60 54 53 56 56 60 68 74 84 93 98 102 106 105 98 89 77 67 61 55 52 44 32 28 21 18 20 27 30 32 38
100 95 96 100 98 84 82 81 84 75 73 73 72 67 72 74 71 66 65 76 83 92 96 103 110 111 102 91 70 65 65 57 46 37 33 26 18 21 24 26 29 34 40
91 94 101 99 103 96 91 85 82 77 81 75 79 76 72 77 79 79 81 85 91 93 95 97 105 105 92 79 72 64 56 47 46 37 31 22 20 23 25 27 29 33 41
Wind_Direction_500mb
271 273 274 271 263 256 251 246 239 236 229 225 223 223 225 224 225 224 226 228 229 230 231 231 232 234 240 253 271 287 294 298 304 310 309 319 310 254 144 320 325 320 348
270 273 275 274 264 253 249 244 237 235 230 226 227 227 228 227 228 227 228 228 229 230 231 231 231 231 236 248 267 287 292 295 307 323 330 329 315 218 311 292 321 321 320
270 273 275 271 262 253 246 245 237 233 229 226 224 226 227 228 227 225 227 227 227 229 230 230 230 230 233 239 256 285 293 298 310 320 328 329 304 319 260 315 328 323 320
273 275 276 269 258 255 246 240 234 231 229 228 227 227 228 225 227 229 230 228 227 228 229 230 230 231 232 235 244 267 286 292 300 310 314 310 309 321 316 308 319 320 319
279 278 279 266 250 247 245 237 229 228 230 230 231 231 230 232 236 235 232 230 230 229 230 230 230 230 231 232 240 256 278 283 292 302 306 302 301 300 293 308 319 317 322
276 283 260 238 238 238 238 231 226 227 230 231 231 231 232 233 234 235 232 231 231 230 229 230 231 230 231 233 239 248 269 277 284 293 300 301 302 303 297 295 305 312 318
262 280 256 235 227 230 230 226 225 227 229 227 228 229 231 233 236 238 237 234 232 231 228 228 229 230 232 233 234 242 262 278 286 293 294 293 292 298 300 300 307 310 315
281 267 243 244 229 226 225 227 227 230 228 224 224 225 228 233 236 239 240 238 239 238 234 230 229 227 228 230 233 243 260 275 282 286 287 281 283 288 294 302 312 317 316
274 265 246 234 224 230 230 231 230 231 230 228 226 224 228 231 233 236 238 240 241 240 237 235 231 228 227 229 231 237 253 270 276 278 277 277 282 287 295 301 306 309 310
273 255 231 230 232 239 241 238 237 237 235 231 232 231 230 232 235 237 239 240 241 240 237 234 231 229 229 228 230 236 244 257 265 272 271 271 277 287 294 298 301 302 300
290 226 224 234 249 252 248 242 242 239 238 237 237 237 234 236 236 237 238 241 241 242 236 232 230 229 230 229 230 236 245 254 260 265 265 268 274 282 290 295 298 298 297
235 227 270 273 276 268 255 250 249 243 241 243 244 243 241 242 241 239 239 240 240 238 236 231 228 229 229 229 232 237 244 252 256 259 261 264 273 282 287 291 293 294 296
257 274 283 285 286 280 273 266 253 242 244 246 247 246 246 246 246 244 243 241 240 236 233 229 230 229 227 229 232 236 242 249 253 255 256 257 265 278 286 292 293 294 295
276 289 288 286 285 285 276 265 257 258 257 254 252 248 249 250 250 247 245 242 241 237 232 230 229 227 228 228 231 234 239 247 251 253 251 256 268 280 289 292 293 294 297
280 287 284 281 282 277 266 257 265 262 260 256 251 249 252 252 250 247 246 243 240 237 233 229 226 226 226 227 229 233 238 243 247 250 251 258 273 284 289 291 289 294 295
346 334 312 298 286 276 273 270 269 271 265 258 254 250 249 249 248 246 243 241 236 233 231 227 226 225 225 226 228 232 236 241 245 248 249 260 272 286 289 284 290 289 295
358 350 348 343 314 292 284 276 272 271 264 259 254 249 249 247 246 244 239 236 234 231 228 226 225 224 224 225 227 232 235 239 245 248 254 262 279 283 280 284 288 291 285
337 335 335 342 344 316 286 283 277 271 266 260 255 249 245 243 243 240 237 233 229 228 226 226 224 223 221 223 227 231 233 236 240 249 258 270 278 275 280 286 292 299 304
330 333 336 338 342 344 334 292 276 267 262 259 256 251 247 243 240 236 233 229 227 224 222 225 225 223 220 222 226 229 230 235 246 253 256 267 267 280 286 289 298 299 301
323 325 332 328 332 337 339 345 324 292 278 268 258 250 246 242 240 235 232 229 226 226 223 222 223 223 221 221 225 229 230 237 242 246 254 259 272 278 284 289 302 295 299
316 321 324 318 319 322 330 332 336 329 305 289 274 262 254 248 244 238 235 231 226 222 223 221 220 219 219 219 223 229 229 237 240 243 245 249 261 275 281 279 278 291 299
316 316 316 317 311 316 317 321 320 320 320 311 296 274 260 249 241 236 233 230 227 224 222 219 217 216 214 214 220 226 231 234 237 240 243 251 259 266 277 284 293 297 300
316 318 315 311 309 313 308 299 300 304 303 299 294 278 268 251 244 238 234 227 225 224 223 219 214 212 211 213 218 218 225 235 232 234 231 235 244 265 283 289 296 302 311
312 314 314 311 305 308 303 299 295 291 288 284 277 276 265 260 255 247 241 235 230 223 220 218 216 211 208 209 211 211 217 218 225 224 220 230 239 258 274 287 295 315 325
312 312 308 308 305 303 294 296 299 292 293 277 267 258 252 254 250 249 250 245 243 237 229 222 218 214 211 210 212 216 219 219 221 215 217 223 243 260 272 289 309 323 329
305 303 304 305 306 304 296 287 282 286 288 286 272 259 252 251 246 241 237 233 233 232 231 230 223 216 220 210 205 208 206 208 219 207 211 218 236 258 282 300 316 330 331
Wind_Speed_850mb
116 114 100 80 78 84 90 91 89 84 83 84 84 84 85 83 81 76 72 70 66 62 58 56 53 46 39 32 28 29 32 35 38 44 44 35 19 9 6 40 10 29 17
107 110 96 73 63 68 81 93 95 89 84 87 85 85 83 84 81 77 76 73 68 64 62 60 57 49 41 32 25 27 31 34 34 36 41 25 19 13 48 12 25 17 27
107 106 93 73 63 69 73 86 92 88 83 83 85 85 82 81 81 84 84 80 73 69 66 64 60 53 46 34 24 26 31 31 31 30 22 13 11 58 11 39 33 48 42
98 94 81 65 62 63 68 78 87 83 79 82 85 91 89 91 93 92 89 82 77 73 71 68 64 58 49 38 27 24 32 32 30 29 28 25 28 22 36 44 59 49 55
89 84 68 50 50 57 65 71 78 76 78 80 82 86 88 84 85 88 86 82 81 78 74 71 67 63 55 43 32 25 30 32 32 33 31 30 25 26 24 63 76 66 62
72 70 38 36 49 58 61 68 73 74 76 76 81 84 82 83 87 89 87 86 86 83 79 75 72 66 59 48 36 27 29 32 32 33 34 34 31 30 31 45 60 65 73
72 66 39 43 53 55 61 69 73 75 74 77 78 79 81 83 84 86 84 87 90 91 88 81 77 72 61 51 41 32 29 33 34 34 34 33 31 32 37 45 57 61 80
72 55 37 45 49 58 64 70 71 75 80 80 80 79 78 82 83 84 86 88 88 87 85 81 77 72 64 57 47 35 31 35 38 37 35 33 32 32 35 43 53 74 59
63 45 45 46 49 57 63 66 68 72 81 86 86 83 82 86 85 83 86 88 85 84 81 80 78 74 69 61 52 41 34 39 43 42 38 35 35 35 37 42 46 51 52
40 41 37 36 43 47 55 59 66 74 82 87 88 88 87 88 86 83 84 88 89 87 80 82 82 76 70 63 55 46 40 44 47 46 41 37 36 37 39 43 47 50 57
14 15 20 27 34 41 50 56 68 81 83 82 91 97 97 97 96 91 86 88 89 87 83 84 84 79 73 65 58 52 48 49 47 46 42 39 35 36 40 46 51 55 60
26 13 14 19 30 43 53 60 67 80 77 80 91 97 103 106 106 103 97 94 93 86 83 86 86 83 77 71 65 58 53 51 48 46 42 38 36 38 42 48 55 58 60
42 41 51 59 68 74 79 76 80 78 75 89 95 97 101 109 113 112 108 103 98 88 87 90 92 89 81 75 68 62 58 53 49 45 41 38 36 39 45 50 56 59 64
83 77 82 86 80 85 95 89 76 73 81 90 94 96 99 102 108 111 111 108 102 92 92 95 93 90 83 79 75 67 59 54 50 45 43 39 37 40 46 54 58 58 63
66 80 91 83 80 82 86 73 79 84 84 89 99 98 94 98 107 106 103 104 101 93 89 93 96 94 91 87 78 70 61 56 52 47 42 41 38 42 49 54 54 57 60
57 63 75 90 79 88 101 108 101 97 99 102 105 103 102 99 104 98 98 98 93 89 88 96 100 99 95 87 78 71 63 57 52 49 46 39 38 41 47 49 46 49 50
66 71 80 77 76 87 93 99 100 98 92 101 103 104 101 102 99 95 94 94 90 88 92 100 102 101 94 86 81 73 63 57 51 49 46 38 39 43 44 43 47 43 43
86 80 86 93 93 75 77 82 90 88 89 91 95 95 99 95 91 93 92 88 88 89 96 101 102 99 95 90 83 74 63 56 51 49 43 38 40 41 38 44 46 50 52
74 74 86 88 86 84 72 57 61 66 68 71 75 81 86 88 90 91 89 88 89 91 95 98 100 99 93 89 81 71 63 54 48 47 44 38 40 31 37 40 45 52 61
69 79 83 93 90 83 88 78 47 41 47 57 67 76 81 84 81 83 84 82 84 87 94 95 97 96 94 87 78 72 59 50 53 51 42 40 30 34 32 34 42 61 68
86 84 89 83 83 87 79 78 72 54 46 49 56 62 68 74 74 73 73 78 84 89 94 93 95 97 91 79 74 69 56 57 56 48 42 30 28 30 32 30 46 54 55
80 73 85 88 87 67 77 79 74 65 54 48 49 53 58 61 66 70 72 75 81 87 92 93 96 96 89 80 74 68 54 60 51 46 36 26 26 27 27 35 40 43 47
85 81 75 84 87 76 68 71 78 72 63 56 52 47 51 58 59 62 72 77 80 87 93 97 103 101 92 83 78 63 62 63 56 49 35 32 26 19 23 32 37 38 40
85 92 91 88 92 82 85 83 81 60 67 71 60 54 53 56 56 60 68 74 84 93 98 102 106 105 98 89 77 67 61 55 52 44 32 28 21 18 20 27 30 32 38
100 95 96 100 98 84 82 81 84 75 73 73 72 67 72 74 71 66 65 76 83 92 96 103 110 111 102 91 70 65 65 57 46 37 33 26 18 21 24 26 29 34 40
91 94 101 99 103 96 91 85 82 77 81 75 79 76 72 77 79 79 81 85 91 93 95 97 105 105 92 79 72 64 56 47 46 37 31 22 20 23 25 27 29 33 41
Wind_Direction_850mb
271 273 274 271 263 256 251 246 239 236 229 225 223 223 225 224 225 224 226 228 229 230 231 231 232 234 240 253 271 287 294 298 304 310 309 319 310 254 144 320 325 320 348
270 273 275 274 264 253 249 244 237 235 230 226 227 227 228 227 228 227 228 228 229 230 231 231 231 231 236 248 267 287 292 295 307 323 330 329 315 218 311 292 321 321 320
270 273 275 271 262 253 246 245 237 233 229 226 224 226 227 228 227 225 227 227 227 229 230 230 230 230 233 239 256 285 293 298 310 320 328 329 304 319 260 315 328 323 320
273 275 276 269 258 255 246 240 234 231 229 228 227 227 228 225 227 229 230 228 227 228 229 230 230 231 232 235 244 267 286 292 300 310 314 310 309 321 316 308 319 320 319
279 278 279 266 250 247 245 237 229 228 230 230 231 231 230 232 236 235 232 230 230 229 230 230 230 230 231 232 240 256 278 283 292 302 306 302 301 300 293 308 319 317 322
276 283 260 238 238 238 238 231 226 227 230 231 231 231 232 233 234 235 232 231 231 230 229 230 231 230 231 233 239 248 269 277 284 293 300 301 302 303 297 295 305 312 318
262 280 256 235 227 230 230 226 225 227 229 227 228 229 231 233 236 238 237 234 232 231 228 228 229 230 232 233 234 242 262 278 286 293 294 293 292 298 300 300 307 310 315
281 267 243 244 229 226 225 227 227 230 228 224 224 225 228 233 236 239 240 238 239 238 234 230 229 227 228 230 233 243 260 275 282 286 287 281 283 288 294 302 312 317 316
274 265 246 234 224 230 230 231 230 231 230 228 226 224 228 231 233 236 238 240 241 240 237 235 231 228 227 229 231 237 253 270 276 278 277 277 282 287 295 301 306 309 310
273 255 231 230 232 239 241 238 237 237 235 231 232 231 230 232 235 237 239 240 241 240 237 234 231 229 229 228 230 236 244 257 265 272 271 271 277 287 294 298 301 302 300
290 226 224 234 249 252 248 242 242 239 238 237 237 237 234 236 236 237 238 241 241 242 236 232 230 229 230 229 230 236 245 254 260 265 265 268 274 282 290 295 298 298 297
235 227 270 273 276 268 255 250 249 243 241 243 244 243 241 242 241 239 239 240 240 238 236 231 228 229 229 229 232 237 244 252 256 259 261 264 273 282 287 291 293 294 296
257 274 283 285 286 280 273 266 253 242 244 246 247 246 246 246 246 244 243 241 240 236 233 229 230 229 227 229 232 236 242 249 253 255 256 257 265 278 286 292 293 294 295
276 289 288 286 285 285 276 265 257 258 257 254 252 248 249 250 250 247 245 242 241 237 232 230 229 227 228 228 231 234 239 247 251 253 251 256 268 280 289 292 293 294 297
280 287 284 281 282 277 266 257 265 262 260 256 251 249 252 252 250 247 246 243 240 237 233 229 226 226 226 227 229 233 238 243 247 250 251 258 273 284 289 291 289 294 295
346 334 312 298 286 276 273 270 269 271 265 258 254 250 249 249 248 246 243 241 236 233 231 227 226 225 225 226 228 232 236 241 245 248 249 260 272 286 289 284 290 289 295
358 350 348 343 314 292 284 276 272 271 264 259 254 249 249 247 246 244 239 236 234 231 228 226 225 224 224 225 227 232 235 239 245 248 254 262 279 283 280 284 288 291 285
337 335 335 342 344 316 286 283 277 271 266 260 255 249 245 243 243 240 237 233 229 228 226 226 224 223 221 223 227 231 233 236 240 249 258 270 278 275 280 286 292 299 304
330 333 336 338 342 344 334 292 276 267 262 259 256 251 247 243 240 236 233 229 227 224 222 225 225 223 220 222 226 229 230 235 246 253 256 267 267 280 286 289 298 299 301
323 325 332 328 332 337 339 345 324 292 278 268 258 250 246 242 240 235 232 229 226 226 223 222 223 223 221 221 225 229 230 237 242 246 254 259 272 278 284 289 302 295 299
316 321 324 318 319 322 330 332 336 329 305 289 274 262 254 248 244 238 235 231 226 222 223 221 220 219 219 219 223 229 229 237 240 243 245 249 261 275 281 279 278 291 299
316 316 316 317 311 316 317 321 320 320 320 311 296 274 260 249 241 236 233 230 227 224 222 219 217 216 214 214 220 226 231 234 237 240 243 251 259 266 277 284 293 297 300
316 318 315 311 309 313 308 299 300 304 303 299 294 278 268 251 244 238 234 227 225 224 223 219 214 212 211 213 218 218 225 235 232 234 231 235 244 265 283 289 296 302 311
312 314 314 311 305 308 303 299 295 291 288 284 277 276 265 260 255 247 241 235 230 223 220 218 216 211 208 209 211 211 217 218 225 224 220 230 239 258 274 287 295 315 325
312 312 308 308 305 303 294 296 299 292 293 277 267 258 252 254 250 249 250 245 243 237 229 222 218 214 211 210 212 216 219 219 221 215 217 223 243 260 272 289 309 323 329
305 303 304 305 306 304 296 287 282 286 288 286 272 259 252 251 246 241 237 233 233 232 231 230 223 216 220 210 205 208 206 208 219 207 211 218 236 258 282 300 316 330 331